STARLINK-30100 (57623 NORAD) Tracking and Keplerian Element Data

This shows tracking and keplerian element data for the satellite.

Feedback or suggestion? Click here.




ElementValue
Catalog57623
NameSTARLINK-30100
Epoch Orbit2465
Epoch Day12.46220336
Epoch Year2024
RAAN39.422
Inclination43.0036
Eccentricity8.62E-05
Argument of Perigee252.9844
Mean Anonmoly107.0904
Mean Motion15.0250629
Decay Rate0.0002556
L11 57623U 23119X 24012.46220336 .00025560 00000+0 19018-2 0 9992
L22 57623 43.0036 39.4220 0000862 252.9844 107.0904 15.02506290 24659



Live tracking and technical data element details for STARLINK-30100 (NORAD 57623). STARLINK-30100 can be tracked NOW for your location showing map with azimuth and elevation plus other details from your city location.







IsCatalogInMostPopularTable: catalog: 57623, numindb: 24
Update: records affected: 1



GetName: 57623 STARLINK-30100

Hit Count: updated at: Thu, 29 Feb 2024 12:28:33 GMT